Regional Weather Roundup
Issued by NWS

Home | Current Version | Previous Version | Graphics & Text | Print | Product List | Glossary On
Versions: 1 2 3 4 5 6 7 8 9 10 11 12 13 14 15 16 17 18 19 20 21 22 23 24 25 26 27 28 29 30 31 32 33 34 35 36 37 38 39 40 41 42 43 44 45 46 47 48 49 50
000
ASUS43 KMPX 280610
RWRMN
WEATHER ROUNDUP FOR MINNESOTA
NATIONAL WEATHER SERVICE TWIN CITIES/CHANHASSEN MN
100 AM CDT TUE MAR 28 2017


NOTE: "FAIR" INDICATES FEW OR NO CLOUDS BELOW 12,000 FEET WITH NO
SIGNIFICANT WEATHER AND/OR OBSTRUCTIONS TO VISIBILITY. N/A MEANS
CURRENT SKY AND/OR WEATHER CONDITIONS ARE NOT AVAILABLE.

MNZ060>063-068>070-280700-
   Twin Cities Metro

CITY           SKY/WX    TMP DP  RH WIND       PRES   REMARKS
TWIN CITIES    CLEAR     42  35  76 CALM      30.03R
6HR MIN TEMP:  41; 6HR MAX TEMP:  53;

ST PAUL        CLEAR     37  36  96 CALM      30.04R
CRYSTAL        CLEAR     38  31  76 CALM      30.02R
BLAINE         CLEAR     39  34  81 CALM      30.03S
LAKEVILLE      PTCLDY    32  32 100 CALM      30.03S
EDEN PRAIRIE   PTCLDY    42  36  79 CALM      30.02S
6HR MIN TEMP:  41; 6HR MAX TEMP:  54;

SOUTH ST PAUL  CLEAR     37  34  89 CALM      30.03S
LAKE ELMO      FAIR      34  34 100 CALM      30.04S
$$
MNZ001>005-007-008-013>017-022>024-027-028-280700-
   Northwest Minnesota

CITY           SKY/WX    TMP DP  RH WIND       PRES   REMARKS
BEMIDJI        PTCLDY    29  26  86 NW6       30.06R WCI  23
HALLOCK        CLOUDY    34  32  93 N6        30.10R WCI  29
ROSEAU         CLOUDY    36  32  87 CALM      30.09R
WARROAD        MOCLDY    39  32  75 N7        30.09R
THIEF RVR FALL CLOUDY   N/A N/A N/A CALM      30.08S
CROOKSTON      FOG       34  34 100 N6        30.09S VSB 1/4 WCI  29
FOSSTON        CLOUDY    34  32  93 NE3       30.07S
DETROIT LAKES  FOG       34  34 100 CALM      30.06R VSB 1/2
MOORHEAD       DRZL/FOG  36  36 100 N7        30.08R VSB 1/4
PARK RAPIDS    CLEAR     38  25  59 N6        30.04S
MAHNOMEN       CLOUDY    35  35  98 NE6       30.05S WCI  30
$$
MNZ006-009>011-018-025>026-280700-
   North Central Minnesota

CITY           SKY/WX    TMP DP  RH WIND       PRES   REMARKS
BAUDETTE       CLOUDY    39  29  67 N5        30.06R
FLAG ISLAND    CLEAR     36  30  80 CALM      30.09R
INTL FALLS     CLOUDY    41  27  57 NE5       30.05R
6HR MIN TEMP:  36; 6HR MAX TEMP:  53;

WASKISH        CLOUDY    36  30  80 CALM      30.06R
BIG FORK       PTCLDY    28  25  86 CALM      30.04S
LONGVILLE      CLEAR     28  27  93 CALM      30.05R FOG
GRAND RAPIDS   CLEAR     33  27  78 CALM      30.07
CRANE LAKE     CLOUDY    27  25  93 CALM      30.07S
ORR            MOCLDY    28  25  86 CALM      30.02S
COOK           CLEAR     28  25  86 CALM      30.04S
WALKER         FAIR      32  26  78 CALM      30.06R
$$
MNZ012-019>021-037-280700-
   Northeast Minnesota

CITY           SKY/WX    TMP DP  RH WIND       PRES   REMARKS
DULUTH         CLEAR     30  27  88 CALM      30.04R
6HR MIN TEMP:  29; 6HR MAX TEMP:  44;

ELY            CLEAR     27  25  93 CALM      30.04S
HIBBING        CLEAR     26  25  96 NW3       30.04R
EVELETH        CLEAR     28  25  91 CALM      30.05S
DULUTH HARBOR  CLEAR     32  30  93 CALM      30.08R
TWO HARBORS    CLEAR     30  25  80 CALM      30.03R
SILVER BAY     CLEAR     28  27  93 CALM      30.04R
GRAND MARAIS     N/A     30  28  92 CALM      30.05R
G MARAIS ARPRT CLEAR     25  21  86 W6        30.03S WCI  18
$$
MNZ029>031-032-039>041-046>048-054>057-064-280700-
   West Central Minnesota

CITY           SKY/WX    TMP DP  RH WIND       PRES   REMARKS
FERGUS FALLS   CLEAR     39  39 100 NE5       30.08S
WHEATON        PTCLDY    36  30  80 CALM      30.07R
MORRIS         CLOUDY    39  34  81 CALM      30.04R
ALEXANDRIA     PTCLDY    38  33  82 CALM      30.05R
ELBOW LAKE     FAIR      37  36  93 CALM      30.05R
WADENA         PTCLDY    32  30  93 CALM      30.04R
GLENWOOD       PTCLDY    39  34  81 CALM      30.05R
APPLETON       CLOUDY    37  34  87 CALM      30.04S
BENSON         CLOUDY    37  32  81 CALM      30.06R
ORTONVILLE     MOCLDY    37  34  87 CALM      30.05R
MADISON        CLOUDY    43  37  81 CALM      30.04R
WILLMAR        FAIR      37  34  87 CALM      30.05S
$$
MNZ033>034-036-042>043-049>051-058-059-280700-
   Central Minnesota

CITY           SKY/WX    TMP DP  RH WIND       PRES   REMARKS
ST CLOUD       PTCLDY    32  31  96 CALM      30.04R
6HR MIN TEMP:  31; 6HR MAX TEMP:  55;

SAUK CENTRE    FAIR      32  31  94 CALM      30.05R
PAYNESVILLE      N/A     32  32 100 CALM      30.05R
AITKIN         CLEAR     30  25  80 CALM      30.04R
PINE RIVER     CLEAR     28  25  86 CALM      30.08R
BRAINERD       CLEAR     30  27  88 CALM      30.05R
LONG PRAIRIE   FAIR      32  32 100 CALM      30.05R
LITTLE FALLS   CLEAR     30  28  93 CALM      30.05R
LITCHFIELD     CLOUDY    41  37  87 CALM      30.05R
BUFFALO        PTCLDY    35  32  87 CALM      30.05R
MAPLE LAKE     PTCLDY    34  33  96 CALM      30.05R
HUTCHINSON     CLOUDY    35  34  94 CALM      30.05R
$$
MNZ037-044-045-052-053-280700-
   East Central Minnesota

CITY           SKY/WX    TMP DP  RH WIND       PRES   REMARKS
PRINCETON      PTCLDY    34  32  93 CALM      30.05R
MORA           CLEAR     30  28  93 CALM      30.07R
CAMBRIDGE      PTCLDY    32  27  80 CALM      30.03S
RUSH CITY      CLEAR     33  29  86 CALM      30.05R
MOOSE LAKE     CLEAR     30  28  93 CALM      30.04R
CLOQUET        CLEAR     28  27  93 CALM      30.05R
MCGREGOR       CLEAR     32  30  93 CALM      30.06R
$$
MNZ071>073-080-081-089-090-097-098-280700-
   Southwest Minnesota

CITY           SKY/WX    TMP DP  RH WIND       PRES   REMARKS
MONTEVIDEO     MOCLDY    39  32  75 CALM      30.06R
GRANITE FALLS  PTCLDY    38  34  84 CALM      30.06R
CANBY          MOCLDY    38  36  93 CALM      30.05R
MARSHALL       PTCLDY    38  34  85 CALM      30.04R
REDWOOD FALLS  MOCLDY    46  33  60 E5        30.03R
OLIVIA         CLOUDY    41  34  75 CALM      30.03R
PIPESTONE      MOCLDY    41  36  81 CALM      30.03R
WINDOM         PTCLDY    36  36 100 W3        30.04R
WORTHINGTON    MOCLDY    35  33  92 W6        30.04R WCI  30
JACKSON        CLEAR     37  36  93 W5        30.03S
TRACY          MOCLDY    42  38  84 SW7       30.04R
SLAYTON        MOCLDY    37  35  90 CALM      30.05R
$$
MNZ065>067-074>077-082>085-091>093-280700-
   South Central Minnesota

CITY           SKY/WX    TMP DP  RH WIND       PRES   REMARKS
MANKATO        PTCLDY    41  39  93 S5        30.04R
NEW ULM        PTCLDY    37  30  75 CALM      30.03S
ST JAMES       PTCLDY    37  36  93 CALM      30.05R
FAIRMONT       CLEAR     38  37  97 W3        30.04R
GLENCOE        CLOUDY    37  35  92 CALM      30.03S
FARIBAULT      PTCLDY    34  34 100 CALM      30.04R FOG
OWATONNA       CLOUDY    34  32  93 CALM      30.04R
WASECA         CLEAR     34  32  93 CALM      30.05R
ALBERT LEA     CLEAR     34  34 100 CALM      30.02R FOG
$$
MNZ078>079-086>088-094>096-280700-
   Southeast Minnesota

CITY           SKY/WX    TMP DP  RH WIND       PRES   REMARKS
ROCHESTER      CLOUDY    38  38 100 NE5       30.02S
6HR MIN TEMP:  37; 6HR MAX TEMP:  45;

RED WING       CLEAR     32  30  93 CALM      30.04R
STANTON        CLOUDY    33  32  95 CALM      30.03R
DODGE CENTER   CLOUDY    36  36 100 CALM      30.02S FOG
WINONA         CLEAR     36  36 100 CALM      30.05S
AUSTIN         FOG       37  36  93 CALM      30.02R VSB 1
PRESTON        CLOUDY    38  37  92 CALM      30.02F
$$
ABBREVIATIONS USED IN REMARKS
   TC - TEMPERATURES IN CELSIUS
  WCI - WIND CHILL INDEX
   HX - HEAT INDEX
  VSB - VISIBILITY
$$




USA.gov is the U.S. government's official web portal to all federal, state and local government web resources and services.